TimePST,TemperatureF,Dew PointF,Humidity,Sea Level PressureIn,VisibilityMPH,Wind Direction,Wind SpeedMPH,Gust SpeedMPH,PrecipitationIn,Events,Conditions,WindDirDegrees,DateUTC
12:39 AM,28.4,26.6,93,30.52,5.0,Calm,Calm,-,N/A,,Overcast,0,2013-01-14 08:39:00
12:53 AM,28.9,26.1,89,30.53,4.0,Calm,Calm,-,N/A,,Overcast,0,2013-01-14 08:53:00
1:53 AM,30.0,27.0,88,30.53,5.0,Calm,Calm,-,N/A,,Overcast,0,2013-01-14 09:53:00
2:53 AM,30.0,27.0,88,30.53,4.0,Calm,Calm,-,N/A,,Overcast,0,2013-01-14 10:53:00
3:53 AM,30.0,25.0,82,30.53,6.0,Calm,Calm,-,N/A,,Overcast,0,2013-01-14 11:53:00
4:53 AM,30.9,25.0,79,30.53,7.0,Calm,Calm,-,N/A,,Overcast,0,2013-01-14 12:53:00
5:53 AM,30.9,26.1,82,30.53,7.0,Calm,Calm,-,N/A,,Overcast,0,2013-01-14 13:53:00
6:53 AM,30.9,26.1,82,30.54,7.0,Calm,Calm,-,N/A,,Overcast,0,2013-01-14 14:53:00
7:53 AM,30.0,26.1,85,30.56,6.0,SSW,5.8,-,0.00,Snow,Light Snow,200,2013-01-14 15:53:00
8:53 AM,30.0,25.0,82,30.57,5.0,South,5.8,-,0.00,Snow,Light Snow,180,2013-01-14 16:53:00
9:28 AM,30.2,26.6,86,30.57,2.0,South,4.6,-,0.00,Snow,Light Snow,180,2013-01-14 17:28:00
9:53 AM,30.0,26.1,85,30.57,2.0,South,4.6,-,0.00,Snow,Light Snow,170,2013-01-14 17:53:00
10:17 AM,30.2,26.6,86,30.58,4.0,South,4.6,-,0.00,Snow,Light Snow,170,2013-01-14 18:17:00
10:45 AM,30.2,26.6,86,30.57,5.0,South,5.8,-,0.00,,Haze,190,2013-01-14 18:45:00
10:53 AM,30.9,26.1,82,30.57,5.0,South,5.8,-,0.00,,Haze,170,2013-01-14 18:53:00
11:53 AM,32.0,26.1,79,30.56,8.0,South,3.5,-,N/A,,Overcast,170,2013-01-14 19:53:00
12:53 PM,32.0,27.0,82,30.56,4.0,Calm,Calm,-,0.00,Snow,Light Snow,0,2013-01-14 20:53:00
1:22 PM,32.0,28.4,87,30.55,2.0,Calm,Calm,-,0.00,Snow,Light Snow,0,2013-01-14 21:22:00
1:53 PM,32.0,28.4,87,30.56,2.0,Calm,Calm,-,N/A,Snow,Light Snow,0,2013-01-14 21:53:00
2:50 PM,32.0,28.4,87,30.57,1.5,Calm,Calm,-,0.01,Snow,Light Snow,0,2013-01-14 22:50:00
2:53 PM,32.0,30.0,92,30.57,1.5,East,3.5,-,0.01,Snow,Light Snow,100,2013-01-14 22:53:00
3:18 PM,32.0,30.2,93,30.57,2.0,East,5.8,-,0.00,,Overcast,90,2013-01-14 23:18:00
3:53 PM,33.1,30.0,89,30.57,2.0,SE,5.8,-,0.00,,Light Drizzle,140,2013-01-14 23:53:00
4:46 PM,32.0,30.2,93,30.57,1.8,East,4.6,-,0.00,,Light Drizzle,90,2013-01-15 00:46:00
4:53 PM,32.0,30.0,92,30.57,1.5,East,4.6,-,0.00,,Light Drizzle,90,2013-01-15 00:53:00
5:53 PM,32.0,30.9,96,30.56,1.5,ESE,5.8,-,0.00,,Light Drizzle,120,2013-01-15 01:53:00
6:53 PM,32.0,30.9,96,30.57,1.5,East,4.6,-,0.00,,Light Drizzle,100,2013-01-15 02:53:00
7:53 PM,32.0,30.9,96,30.58,1.5,ESE,5.8,-,0.01,,Light Drizzle,110,2013-01-15 03:53:00
8:11 PM,33.8,30.2,87,30.58,0.8,ESE,5.8,-,0.00,,Light Drizzle,110,2013-01-15 04:11:00
8:53 PM,33.1,32.0,96,30.58,0.8,SE,5.8,-,0.01,,Light Drizzle,130,2013-01-15 04:53:00
9:04 PM,33.8,32.0,93,30.58,1.0,SE,3.5,-,0.00,,Light Drizzle,130,2013-01-15 05:04:00
9:53 PM,33.1,32.0,96,30.58,1.0,ESE,4.6,-,0.00,,Light Drizzle,110,2013-01-15 05:53:00
10:18 PM,33.8,32.0,93,30.58,3.0,SE,4.6,-,0.00,,Light Drizzle,140,2013-01-15 06:18:00
10:53 PM,34.0,33.1,96,30.58,3.0,Calm,Calm,-,0.00,,Light Drizzle,0,2013-01-15 06:53:00
11:53 PM,34.0,32.0,92,30.59,3.0,Calm,Calm,-,0.00,,Light Drizzle,0,2013-01-15 07:53:00